FW1247 Weather Reports


time (UTC)temp
C
wind
direction
speed
KPH
gust
KPH
rain 1hr
cm
rain 24hr
cm
rain mn
cm
humidity
%
barometer
mb
20260902031503 13 212 4.8 8.0 0.00 0.71 0.03 95 1012.8
20260902030002 13 229 4.8 9.7 0.00 0.71 0.03 95 1012.9
20260902024601 13 215 3.2 6.4 0.00 0.71 0.03 95 1012.8
20260902023110 13 239 0.0 3.2 0.00 0.71 0.03 94 1012.9
20260902021608 13 239 1.6 4.8 0.00 0.71 0.03 95 1012.8
20260902020100 13 240 0.0 4.8 0.00 0.71 0.03 94 1012.8
20260902014559 13 240 0.0 3.2 0.00 0.71 0.03 94 1012.8
20260902013054 13 240 0.0 4.8 0.03 0.71 0.03 94 1012.7
20260902011553 13 242 3.2 6.4 0.03 0.71 0.03 94 1012.7
20260902010054 14 242 1.6 6.4 0.03 0.71 0.03 94 1012.7
20260902004551 14 278 0.0 4.8 0.03 0.71 0.03 93 1012.8
20260902003048 14 271 1.6 4.8 0.00 0.71 0.00 93 1012.8
20260902001547 15 271 1.6 11.3 0.00 0.71 0.00 93 1012.9
20260902000051 15 284 4.8 9.7 0.00 0.71 0.00 93 1012.8
20260901234554 15 281 6.4 16.1 0.00 0.71 0.00 93 1012.8
20260901233045 15 265 8.0 16.1 0.00 0.71 0.00 93 1012.8
20260901231543 15 288 1.6 8.0 0.00 0.71 0.00 93 1012.8
20260901230045 15 292 3.2 14.5 0.00 0.71 0.00 92 1012.7
20260901224539 15 281 3.2 12.9 0.00 0.71 0.00 92 1012.6
20260901223035 15 283 3.2 14.5 0.00 0.71 0.00 92 1012.5
20260901221551 15 277 6.4 14.5 0.00 0.71 0.00 92 1012.5
20260901220031 15 298 4.8 20.9 0.00 0.71 0.00 92 1012.4
20260901214531 15 284 6.4 12.9 0.00 0.71 0.71 92 1012.4
20260901213055 15 285 1.6 14.5 0.00 0.71 0.71 92 1012.3
20260901211540 15 254 4.8 11.3 0.00 0.71 0.71 92 1012.3
20260901210037 15 267 4.8 12.9 0.00 0.71 0.71 92 1012.2
20260901204527 15 264 4.8 12.9 0.00 0.71 0.71 91 1012.2
20260901203039 15 295 4.8 9.7 0.00 0.71 0.71 91 1012.1
20260901201524 15 238 4.8 9.7 0.00 0.71 0.71 91 1012.0
20260901200037 16 230 6.4 12.9 0.00 0.71 0.71 90 1012.0
20260901194523 16 283 4.8 16.1 0.00 0.71 0.71 90 1011.9
20260901193024 16 246 4.8 16.1 0.00 0.71 0.71 91 1011.9
20260901191522 16 234 8.0 17.7 0.03 0.71 0.71 91 1012.0
20260901190022 16 248 4.8 11.3 0.03 0.71 0.71 90 1011.9
20260901184521 16 249 4.8 12.9 0.03 0.71 0.71 90 1011.7
20260901183015 16 257 12.9 27.4 0.00 0.71 0.71 88 1011.7
20260901181516 17 286 16.1 35.4 0.00 0.71 0.71 84 1011.4
20260901180013 17 287 6.4 24.1 0.00 0.71 0.71 87 1011.3
20260901174512 18 223 9.7 24.1 0.00 0.71 0.71 85 1011.2
20260901173010 18 227 11.3 27.4 0.00 0.71 0.71 83 1011.1
20260901171513 18 277 12.9 27.4 0.00 0.71 0.71 83 1010.9
20260901170008 18 207 12.9 24.1 0.00 0.71 0.71 84 1010.7
20260901164510 19 208 9.7 25.7 0.00 0.71 0.71 83 1010.6
20260901163006 19 180 8.0 24.1 0.00 0.71 0.71 81 1010.6
20260901161504 20 119 12.9 27.4 0.00 0.71 0.71 80 1010.5
20260901160003 19 223 14.5 27.4 0.00 0.71 0.71 82 1010.4
20260901154510 20 246 14.5 27.4 0.00 0.71 0.71 81 1010.4
20260901153000 20 207 16.1 35.4 0.00 0.71 0.71 78 1010.4
20260901151600 20 232 17.7 32.2 0.00 0.71 0.71 77 1010.2
20260901150107 20 265 11.3 25.7 0.00 0.71 0.71 77 1010.2
20260901144600 20 286 8.0 25.7 0.00 1.19 0.71 78 1010.2
20260901143055 20 292 9.7 20.9 0.00 1.19 0.71 80 1010.1
20260901141559 20 221 11.3 25.7 0.00 1.19 0.71 82 1010.2
20260901140052 19 288 12.9 32.2 0.00 1.19 0.71 82 1010.1
20260901134551 20 271 9.7 25.7 0.05 1.19 0.71 84 1010.1
20260901133050 18 249 6.4 22.5 0.05 1.19 0.71 86 1010.2
20260901131553 17 257 11.3 27.4 0.05 1.19 0.71 87 1010.0
20260901130047 17 246 14.5 29.0 0.05 1.19 0.71 89 1010.1
20260901124548 18 276 17.7 40.2 0.00 1.17 0.66 86 1009.9
20260901123047 18 242 14.5 30.6 0.00 1.17 0.66 86 1009.7
20260901121548 18 295 11.3 37.0 0.30 1.17 0.66 86 1009.5
20260901120046 18 297 8.0 16.1 0.30 1.17 0.66 92 1009.6
20260901114545 17 218 4.8 20.9 0.30 1.17 0.66 92 1009.6
20260901113043 17 222 6.4 19.3 0.30 1.17 0.66 90 1009.6
20260901111541 18 279 16.1 25.7 0.00 0.86 0.36 84 1009.4
20260901110041 18 251 14.5 38.6 0.03 0.86 0.36 86 1009.4
20260901104540 18 216 16.1 27.4 0.15 0.86 0.36 90 1009.4
20260901103139 17 284 16.1 30.6 0.15 0.86 0.36 89 1009.4
20260901101536 18 281 11.3 22.5 0.15 0.86 0.36 89 1009.1
20260901100036 18 288 12.9 25.7 0.13 0.84 0.33 85 1009.2
20260901094534 20 213 14.5 30.6 0.00 0.71 0.23 82 1009.0
20260901093033 18 283 12.9 22.5 0.00 0.71 0.23 84 1008.9
20260901091529 19 228 8.0 25.7 0.00 0.71 0.23 85 1008.8
20260901090028 18 281 14.5 29.0 0.00 0.71 0.23 84 1008.8
20260901084526 18 217 8.0 27.4 0.00 0.76 0.23 88 1008.7
20260901083024 18 276 11.3 20.9 0.00 0.76 0.23 88 1008.6
20260901081520 17 260 9.7 22.5 0.00 0.76 0.23 90 1008.5
20260901080019 17 271 14.5 25.7 0.00 0.76 0.23 92 1008.3
20260901074616 17 260 8.0 19.3 0.03 0.76 0.23 94 1008.2
20260901073014 16 284 11.3 19.3 0.15 0.76 0.23 95 1008.1
20260901071513 17 253 8.0 16.1 0.20 0.76 0.23 95 1008.0
20260901070021 16 298 9.7 19.3 0.20 0.76 0.23 94 1007.9
20260901064509 16 293 9.7 20.9 0.15 0.71 0.18 94 1007.7
20260901063006 17 241 12.9 20.9 0.03 0.58 0.05 93 1007.7
20260901061508 16 281 9.7 17.7 0.00 0.56 0.03 93 1007.5
20260901060001 16 223 6.4 11.3 0.00 0.56 0.03 94 1007.4
20260901054557 16 272 3.2 12.9 0.00 0.56 0.03 94 1007.2
20260901053055 16 288 4.8 14.5 0.00 0.56 0.03 94 1007.1
20260901051549 15 273 3.2 8.0 0.00 0.56 0.03 95 1007.0
20260901050045 15 269 3.2 12.9 0.00 0.56 0.03 94 1006.8
20260901044546 15 275 6.4 14.5 0.00 0.58 0.03 94 1006.7
20260901043042 16 286 8.0 16.1 0.00 0.58 0.03 95 1006.5
20260901041550 16 221 6.4 16.1 0.00 0.58 0.03 95 1006.5
20260901040038 16 244 6.4 16.1 0.00 0.58 0.03 95 1006.4
20260901034539 16 237 4.8 16.1 0.00 0.58 0.03 95 1006.2
20260901033036 16 207 3.2 11.3 0.00 0.58 0.03 95 1006.2